Flag for U.S.A. Weather past 2 weeks in Lincoln, Nebraska, U.S.A.

Now
59 °F

Fog.


Feels Like: 59 °F
Forecast: 60 / 84 °F
Wind: No wind

Location: Lincoln Municipal Airport

Current Time: Jul 4, 2015 at 6:16:14 AM

Latest Report: Jul 4, 2015 at 4:54 AM


Visibility: 4 mi

Pressure: 29.97 "Hg

Humidity: 93%

Dew point: 57 °F

Location of LincolnLocation

Historic Weather in Lincoln — Graph

°F

Lincoln temperature yesterday

Maximum temperature yesterday: 79 °F (at 3:54 PM)
Minimum temperature yesterday: 64 °F (at 5:54 AM)
Average temperature yesterday: 71 °F

Past Weeks' High & Low Weather Summary

 TemperatureHumidityPressure
High95 °F (Jun 24, 4:54 PM)97% (Jun 25, 3:54 AM)30.16 "Hg (Jun 25, 3:54 AM)
Low58 °F (Jun 23, 4:54 AM)31% (Jun 28, 11:54 AM)29.63 "Hg (Jun 22, 7:54 AM)
Average75 °F69%29.92 "Hg
* Reported Jun 19 4:54 AM — Jul 4 4:54 AM, Lincoln, Weather by CustomWeather, © 2015

Note: Actual official high and low records may vary slightly from our data, if they occured in-between our weather recording intervals... More about our weather records

Advertising

Lincoln weather history for previous 24 hours

 ConditionsComfort  
Time TempWeatherWind HumidityBarometerVisibility
4:54 AM
Sat, Jul 4
59 °FFog.No wind93%29.97 "Hg4 mi
3:54 AM64 °FClear.No wind84%29.96 "Hg7 mi
2:54 AM65 °FClear.3 mph81%29.97 "Hg6 mi
1:54 AM66 °FClear.3 mph78%29.98 "Hg5 mi
12:54 AM67 °FClear.No wind76%29.97 "Hg4 mi
11:54 PM
Fri, Jul 3
69 °FClear.No wind81%29.98 "Hg4 mi
10:54 PM66 °FClear.No wind84%29.98 "Hg4 mi
9:54 PM69 °FPassing clouds.No wind76%29.96 "Hg7 mi
8:54 PM72 °FSunny.5 mph68%29.94 "Hg6 mi
7:54 PM75 °FSunny.6 mph66%29.94 "Hg6 mi
6:54 PM77 °FSunny.6 mph60%29.94 "Hg6 mi
5:54 PM77 °FPartly sunny.No wind56%29.95 "Hg7 mi
4:54 PM79 °FPassing clouds.5 mph56%29.95 "Hg8 mi
3:54 PM79 °FPartly sunny.7 mph54%29.96 "Hg8 mi
2:54 PM78 °FOvercast.3 mph56%29.98 "Hg8 mi
1:54 PM77 °FPartly sunny.3 mph58%29.99 "Hg8 mi
12:54 PM77 °FPassing clouds.8 mph58%30.00 "Hg8 mi
11:54 AM74 °FPartly sunny.5 mph60%30.01 "Hg8 mi
10:54 AM74 °FSunny.7 mph64%30.00 "Hg9 mi
9:54 AM71 °FSunny.7 mph66%30.00 "Hg10 mi
8:54 AM68 °FSunny.6 mph70%30.00 "Hg10 mi
7:54 AM64 °FOvercast.7 mph81%29.99 "Hg10 mi
6:54 AM64 °FMostly cloudy.6 mph84%29.99 "Hg10 mi
Weather by CustomWeather, © 2015

See weather overviewHow to use our weather pages